Location: Treviso
(45.6669°N, 12.2430°E)
Time: 07:22:27
(UTC+02:00)

ISS - Pass Details

Date: 23 May 2017
Orbit: 401 x 407 km, 51.6° (Epoch: 23 September)

Event Time Altitude Azimuth Distance (km) Brightness Sun altitude
Exits shadow 23:51:24 30° 55° (NE) 784 -2.3 -21.5°
Drops below altitude 10° 23:53:13 10° 60° (ENE) 1,491 -0.8 -21.6°
Enters shadow 01:13:47 -20° 265° (W) 5,419 1.9 -23.7°
